EWG46K LOWS-LIRP

Flight info

Callsign EWG46K
Flight time 1h 5m
Altitude 33000
Route DETSA DCT MOBDO/N0455F370 DCT GAVRA DCT KUGIX Y662 AKUTO L12 MAREL
Aircraft A319/M-SDE3FGHIRWY/LB1

Departure

Time 2026-05-06 21:58
Airport Salzburg Airport (LOWS)

Arrival

Time 2026-05-06 23:03
Airport Pisa International Airport (LIRP)
Time Latitude Longitude Altitude Speed Heading
2026-05-06 21:57 47.82367 12.65345 12668 ft 342 kts 196°
2026-05-06 21:58 47.80052 12.64477 13401 ft 345 kts 196°
2026-05-06 21:58 47.77710 12.63606 14090 ft 348 kts 196°
2026-05-06 21:58 47.75355 12.62732 14748 ft 350 kts 195°
2026-05-06 21:58 47.72984 12.61854 15417 ft 352 kts 195°
2026-05-06 21:59 47.70592 12.60970 16093 ft 355 kts 195°
2026-05-06 21:59 47.68191 12.60080 16758 ft 357 kts 195°
2026-05-06 21:59 47.65771 12.59185 17431 ft 359 kts 195°
2026-05-06 21:59 47.63336 12.58287 18113 ft 362 kts 195°
2026-05-06 22:00 47.60884 12.57383 18685 ft 364 kts 195°
2026-05-06 22:00 47.58412 12.56475 19310 ft 367 kts 195°
2026-05-06 22:00 47.55924 12.55559 19888 ft 369 kts 195°
2026-05-06 22:00 47.53425 12.54638 20462 ft 371 kts 195°
2026-05-06 22:01 47.50910 12.53712 21024 ft 373 kts 196°
2026-05-06 22:01 47.48383 12.52784 21581 ft 375 kts 196°
2026-05-06 22:01 47.45837 12.51850 22110 ft 377 kts 196°
2026-05-06 22:01 47.43284 12.50914 22616 ft 379 kts 196°
2026-05-06 22:02 47.40723 12.49975 23080 ft 381 kts 196°
2026-05-06 22:02 47.38142 12.49030 23550 ft 383 kts 196°
2026-05-06 22:02 47.35544 12.48081 23959 ft 384 kts 197°
2026-05-06 22:02 47.32943 12.47131 24375 ft 386 kts 197°
2026-05-06 22:03 47.30326 12.46177 24815 ft 388 kts 197°
2026-05-06 22:03 47.27703 12.45221 25234 ft 390 kts 197°
2026-05-06 22:03 47.25095 12.44270 25659 ft 391 kts 197°
2026-05-06 22:03 47.22410 12.43293 26074 ft 393 kts 197°
2026-05-06 22:04 47.19747 12.42326 26509 ft 395 kts 197°
2026-05-06 22:04 47.17107 12.41369 26859 ft 397 kts 197°
2026-05-06 22:04 47.14387 12.40386 27181 ft 399 kts 197°
2026-05-06 22:04 47.11687 12.39412 27535 ft 401 kts 197°
2026-05-06 22:05 47.09010 12.38447 27855 ft 402 kts 197°
2026-05-06 22:05 47.06258 12.37453 28235 ft 403 kts 198°
2026-05-06 22:05 47.03559 12.36476 28598 ft 405 kts 197°
2026-05-06 22:05 47.00815 12.35488 28966 ft 407 kts 197°
2026-05-06 22:06 46.98063 12.34507 29292 ft 408 kts 197°
2026-05-06 22:06 46.95311 12.33524 29777 ft 407 kts 198°
2026-05-06 22:06 46.92570 12.32541 30278 ft 404 kts 198°
2026-05-06 22:06 46.89841 12.31558 30679 ft 403 kts 198°
2026-05-06 22:07 46.87125 12.30582 31098 ft 402 kts 198°
2026-05-06 22:07 46.84419 12.29610 31502 ft 400 kts 198°
2026-05-06 22:07 46.81781 12.28352 31917 ft 396 kts 206°
2026-05-06 22:07 46.79344 12.26540 32338 ft 393 kts 213°
2026-05-06 22:08 46.77132 12.24211 32744 ft 391 kts 221°
2026-05-06 22:08 46.75078 12.21613 32969 ft 391 kts 221°
2026-05-06 22:08 46.70970 12.16483 32997 ft 387 kts 221°
2026-05-06 22:09 46.66874 12.11402 33026 ft 386 kts 221°
2026-05-06 22:09 46.62780 12.06324 33009 ft 386 kts 221°
2026-05-06 22:10 46.58694 12.01249 32988 ft 386 kts 221°
2026-05-06 22:10 46.54605 11.96169 32975 ft 386 kts 221°
2026-05-06 22:11 46.50519 11.91115 32956 ft 386 kts 221°
2026-05-06 22:11 46.46433 11.86074 32941 ft 386 kts 220°
2026-05-06 22:12 46.41783 11.82236 32940 ft 390 kts 201°
2026-05-06 22:12 46.36352 11.81207 32940 ft 400 kts 185°
2026-05-06 22:13 46.30787 11.81232 32935 ft 400 kts 186°
2026-05-06 22:13 46.26157 11.81243 32940 ft 401 kts 186°
2026-05-06 22:14 46.20586 11.81267 32932 ft 400 kts 186°
2026-05-06 22:14 46.15023 11.81301 32934 ft 400 kts 186°
2026-05-06 22:15 46.09445 11.81338 32933 ft 400 kts 186°
2026-05-06 22:15 46.03882 11.81368 32936 ft 399 kts 186°
2026-05-06 22:16 45.98316 11.81393 32928 ft 399 kts 186°
2026-05-06 22:16 45.92761 11.81421 32925 ft 400 kts 186°
2026-05-06 22:17 45.87193 11.81447 32923 ft 400 kts 186°
2026-05-06 22:17 45.81624 11.81469 32917 ft 400 kts 186°
2026-05-06 22:18 45.76061 11.81497 32916 ft 400 kts 186°
2026-05-06 22:18 45.70489 11.81532 32913 ft 401 kts 186°
2026-05-06 22:19 45.64910 11.81560 32911 ft 401 kts 186°
2026-05-06 22:19 45.59335 11.81581 32912 ft 401 kts 186°
2026-05-06 22:20 45.53752 11.81605 32911 ft 401 kts 186°
2026-05-06 22:20 45.48167 11.81642 32911 ft 401 kts 186°
2026-05-06 22:21 45.42583 11.81678 32916 ft 401 kts 186°
2026-05-06 22:21 45.36997 11.81704 32916 ft 401 kts 186°
2026-05-06 22:22 45.31409 11.81732 32908 ft 402 kts 186°
2026-05-06 22:22 45.25816 11.81752 32912 ft 402 kts 186°
2026-05-06 22:23 45.20215 11.81776 32904 ft 403 kts 186°
2026-05-06 22:23 45.14608 11.81807 32910 ft 403 kts 186°
2026-05-06 22:24 45.08987 11.81835 32908 ft 404 kts 186°
2026-05-06 22:24 45.03352 11.81867 32910 ft 405 kts 186°
2026-05-06 22:25 44.97752 11.81893 32909 ft 406 kts 186°
2026-05-06 22:25 44.92096 11.81918 32916 ft 406 kts 186°
2026-05-06 22:26 44.86437 11.81943 32915 ft 407 kts 186°
2026-05-06 22:26 44.80778 11.81974 32919 ft 407 kts 186°
2026-05-06 22:27 44.75106 11.82004 32922 ft 408 kts 186°
2026-05-06 22:27 44.69430 11.82039 32924 ft 408 kts 186°
2026-05-06 22:28 44.63750 11.82066 32922 ft 408 kts 186°
2026-05-06 22:28 44.58062 11.82079 32928 ft 409 kts 186°
2026-05-06 22:29 44.52363 11.82106 32928 ft 409 kts 186°
2026-05-06 22:29 44.46669 11.82139 32942 ft 409 kts 186°
2026-05-06 22:30 44.40975 11.82166 32943 ft 409 kts 186°
2026-05-06 22:30 44.35283 11.82190 32949 ft 409 kts 186°
2026-05-06 22:31 44.29595 11.82216 32948 ft 409 kts 186°
2026-05-06 22:31 44.23909 11.82246 32959 ft 409 kts 186°
2026-05-06 22:32 44.18212 11.82278 32961 ft 409 kts 186°
2026-05-06 22:32 44.12526 11.82303 32959 ft 409 kts 186°
2026-05-06 22:33 44.06830 11.82327 32958 ft 410 kts 186°
2026-05-06 22:33 44.01127 11.82357 32951 ft 411 kts 186°
2026-05-06 22:34 43.95436 11.82388 32952 ft 411 kts 186°
2026-05-06 22:34 43.89661 11.82413 32959 ft 413 kts 186°
2026-05-06 22:35 43.83959 11.82369 32955 ft 410 kts 191°
2026-05-06 22:35 43.81180 11.81668 32964 ft 402 kts 202°
2026-05-06 22:35 43.78605 11.80230 32961 ft 397 kts 212°
2026-05-06 22:36 43.74370 11.75526 32969 ft 390 kts 231°
2026-05-06 22:36 43.71272 11.69310 32974 ft 391 kts 237°
2026-05-06 22:37 43.68274 11.63092 32975 ft 392 kts 237°
2026-05-06 22:37 43.65246 11.56834 32980 ft 392 kts 236°
2026-05-06 22:38 43.63743 11.53732 32749 ft 385 kts 236°
2026-05-06 22:38 43.62269 11.50696 32476 ft 377 kts 236°
2026-05-06 22:38 43.60823 11.47730 32221 ft 368 kts 236°
2026-05-06 22:38 43.59407 11.44829 31956 ft 360 kts 236°
2026-05-06 22:39 43.58031 11.41999 31701 ft 352 kts 236°
2026-05-06 22:39 43.56829 11.39105 31443 ft 344 kts 243°
2026-05-06 22:39 43.55944 11.36071 31191 ft 339 kts 250°
2026-05-06 22:39 43.55379 11.32922 30942 ft 338 kts 257°
2026-05-06 22:40 43.55127 11.29701 30698 ft 339 kts 264°
2026-05-06 22:40 43.55080 11.26444 30450 ft 340 kts 264°
2026-05-06 22:40 43.55035 11.23193 30205 ft 339 kts 264°
2026-05-06 22:40 43.54984 11.19940 29955 ft 339 kts 264°
2026-05-06 22:41 43.54875 11.13473 29387 ft 337 kts 264°
2026-05-06 22:41 43.54820 11.10248 29108 ft 335 kts 264°
2026-05-06 22:41 43.54759 11.07042 28831 ft 334 kts 263°
2026-05-06 22:42 43.54468 11.03891 28419 ft 331 kts 255°
2026-05-06 22:42 43.53800 11.00828 27739 ft 335 kts 246°
2026-05-06 22:42 43.52973 10.97859 27448 ft 330 kts 247°
2026-05-06 22:42 43.52170 10.94913 27037 ft 326 kts 247°
2026-05-06 22:43 43.51383 10.91997 26508 ft 324 kts 247°
2026-05-06 22:43 43.50606 10.89100 25970 ft 322 kts 247°
2026-05-06 22:43 43.49841 10.86255 25439 ft 320 kts 247°
2026-05-06 22:43 43.49057 10.83357 24904 ft 318 kts 247°
2026-05-06 22:44 43.48292 10.80543 24268 ft 319 kts 247°
2026-05-06 22:44 43.47453 10.77665 23400 ft 327 kts 240°
2026-05-06 22:44 43.46173 10.75091 22657 ft 325 kts 227°
2026-05-06 22:44 43.44462 10.73074 22025 ft 324 kts 213°
2026-05-06 22:45 43.42441 10.71740 21400 ft 324 kts 201°
2026-05-06 22:45 43.40316 10.70755 20783 ft 321 kts 201°
2026-05-06 22:45 43.38199 10.69777 20203 ft 319 kts 201°
2026-05-06 22:45 43.36103 10.68805 19644 ft 316 kts 201°
2026-05-06 22:46 43.34029 10.67841 19091 ft 314 kts 201°
2026-05-06 22:46 43.31969 10.66778 18102 ft 321 kts 210°
2026-05-06 22:46 43.30230 10.64851 17188 ft 323 kts 230°
2026-05-06 22:46 43.29155 10.62161 16436 ft 325 kts 251°
2026-05-06 22:47 43.28921 10.59088 15815 ft 327 kts 273°
2026-05-06 22:47 43.29297 10.56079 15670 ft 311 kts 279°
2026-05-06 22:47 43.30100 10.53389 15489 ft 301 kts 298°
2026-05-06 22:47 43.31512 10.51285 15064 ft 303 kts 319°
2026-05-06 22:48 43.33424 10.50035 14543 ft 309 kts 341°
2026-05-06 22:48 43.35520 10.49357 14005 ft 309 kts 343°
2026-05-06 22:48 43.37609 10.48695 13444 ft 307 kts 343°
2026-05-06 22:48 43.39686 10.48033 12890 ft 304 kts 342°
2026-05-06 22:49 43.41638 10.47034 12342 ft 295 kts 326°
2026-05-06 22:49 43.43279 10.45417 11793 ft 287 kts 311°
2026-05-06 22:49 43.44552 10.43345 11439 ft 283 kts 301°
2026-05-06 22:49 43.45722 10.41188 11236 ft 277 kts 302°
2026-05-06 22:50 43.46903 10.39136 11120 ft 272 kts 310°
2026-05-06 22:50 43.48552 10.37912 10983 ft 273 kts 347°
2026-05-06 22:50 43.50423 10.38164 10716 ft 276 kts 23°
2026-05-06 22:50 43.52065 10.39543 10399 ft 278 kts 36°
2026-05-06 22:51 43.53619 10.41136 10085 ft 278 kts 38°
2026-05-06 22:51 43.55138 10.42780 9762 ft 277 kts 39°
2026-05-06 22:51 43.56648 10.44420 9465 ft 275 kts 38°
2026-05-06 22:51 43.58149 10.46031 9168 ft 272 kts 38°
2026-05-06 22:52 43.59623 10.47587 8887 ft 269 kts 37°
2026-05-06 22:52 43.61122 10.49107 8603 ft 265 kts 31°
2026-05-06 22:52 43.62784 10.50118 8306 ft 260 kts 13°
2026-05-06 22:52 43.64553 10.50601 7925 ft 259 kts
2026-05-06 22:53 43.66300 10.51175 7613 ft 256 kts 22°
2026-05-06 22:53 43.67751 10.52513 7391 ft 247 kts 45°
2026-05-06 22:53 43.68965 10.54140 7338 ft 241 kts 45°
2026-05-06 22:53 43.70181 10.55752 7279 ft 246 kts 45°
2026-05-06 22:54 43.71428 10.57402 7226 ft 249 kts 45°
2026-05-06 22:54 43.72675 10.59055 7170 ft 248 kts 45°
2026-05-06 22:54 43.73923 10.60711 7113 ft 249 kts 45°
2026-05-06 22:54 43.75171 10.62370 7065 ft 249 kts 45°
2026-05-06 22:55 43.76419 10.64029 7012 ft 248 kts 45°
2026-05-06 22:55 43.77705 10.65623 6949 ft 249 kts 33°
2026-05-06 22:55 43.79314 10.66403 6897 ft 247 kts
2026-05-06 22:55 43.80974 10.66015 6772 ft 241 kts 332°
2026-05-06 22:56 43.82271 10.64642 6484 ft 234 kts 308°
2026-05-06 22:56 43.83373 10.62985 6139 ft 235 kts 309°
2026-05-06 22:56 43.84491 10.61326 5776 ft 237 kts 310°
2026-05-06 22:56 43.85616 10.59664 5414 ft 235 kts 310°
2026-05-06 22:57 43.86564 10.57872 5042 ft 227 kts 287°
2026-05-06 22:57 43.86714 10.55789 4711 ft 214 kts 256°
2026-05-06 22:57 43.86108 10.53993 4402 ft 203 kts 229°
2026-05-06 22:57 43.85226 10.52491 4102 ft 199 kts 229°
2026-05-06 22:58 43.84652 10.51514 3915 ft 197 kts 229°
2026-05-06 22:58 43.83744 10.50112 3617 ft 194 kts 217°
2026-05-06 22:58 43.82587 10.49222 3363 ft 188 kts 202°
2026-05-06 22:58 43.81405 10.48486 3038 ft 185 kts 203°
2026-05-06 22:59 43.80250 10.47759 2759 ft 180 kts 203°
2026-05-06 22:59 43.79120 10.47045 2473 ft 177 kts 203°
2026-05-06 22:59 43.78017 10.46345 2196 ft 170 kts 203°
2026-05-06 22:59 43.76974 10.45687 1945 ft 157 kts 203°
2026-05-06 23:00 43.76044 10.45100 1722 ft 139 kts 202°
2026-05-06 23:00 43.75196 10.44563 1499 ft 131 kts 202°
2026-05-06 23:00 43.74385 10.44053 1300 ft 125 kts 202°
2026-05-06 23:00 43.73598 10.43562 1058 ft 128 kts 201°
2026-05-06 23:01 43.72783 10.43060 922 ft 128 kts 202°
2026-05-06 23:01 43.71964 10.42536 770 ft 133 kts 203°
2026-05-06 23:01 43.71122 10.41971 562 ft 136 kts 203°
2026-05-06 23:01 43.70311 10.41343 353 ft 131 kts 209°
2026-05-06 23:02 43.69561 10.40641 140 ft 131 kts 211°
2026-05-06 23:02 43.68847 10.39911 22 ft 117 kts 216°
2026-05-06 23:02 43.68300 10.39350 18 ft 74 kts 216°
2026-05-06 23:02 43.67985 10.39025 16 ft 53 kts 217°
2026-05-06 23:03 43.67690 10.38727 18 ft 49 kts 216°
2026-05-06 23:03 43.67547 10.38572 18 ft 13 kts 226°
2026-05-06 23:03 43.67546 10.38475 17 ft 11 kts 305°
2026-05-06 23:03 43.67603 10.38372 14 ft 10 kts 307°
2026-05-06 23:04 43.67667 10.38361 14 ft 12 kts 37°
2026-05-06 23:04 43.67736 10.38435 16 ft 14 kts 37°
2026-05-06 23:04 43.67820 10.38523 15 ft 17 kts 37°
2026-05-06 23:04 43.67933 10.38641 15 ft 24 kts 37°
2026-05-06 23:05 43.68093 10.38811 13 ft 34 kts 37°
2026-05-06 23:05 43.68306 10.39028 15 ft 41 kts 37°
2026-05-06 23:05 43.68545 10.39277 18 ft 46 kts 37°
2026-05-06 23:05 43.68820 10.39553 18 ft 52 kts 36°
2026-05-06 23:06 43.69096 10.39839 22 ft 41 kts 37°
2026-05-06 23:06 43.69308 10.40058 22 ft 32 kts 37°
2026-05-06 23:06 43.69411 10.40102 23 ft 12 kts 350°
2026-05-06 23:06 43.69500 10.40083 17 ft 9 kts 353°
2026-05-06 23:07 43.69573 10.40069 18 ft 12 kts 352°
2026-05-06 23:07 43.69644 10.40055 15 ft 8 kts 352°
2026-05-06 23:07 43.69675 10.40041 17 ft 5 kts 316°
2026-05-06 23:07 43.69706 10.40023 16 ft 5 kts
2026-05-06 23:08 43.69734 10.40028 15 ft 3 kts
2026-05-06 23:08 43.69745 10.40031 15 ft 2 kts
2026-05-06 23:08 43.69747 10.40031 15 ft 0 kts